Location: İstanbul
(41.0082°N, 28.9784°E)
Time: 21:01:50
(UTC+03:00)

ITUPSAT 1 - Pass Details

Date: 03 May 2024
Orbit: 694 x 707 km, 98.5° (Epoch: 29 May)

Event Time Altitude Azimuth Distance (km) Brightness Sun altitude
Rises 23:42:08 0° 6° (N) 3,081 ? -30.1°
Reaches altitude 10° 23:44:29 10° 360° (N) 2,160 ? -30.3°
Enters shadow 23:48:27 41° 306° (NW) 1,004 ? -30.6°
